Wind_Speed
42 42 42 42 42 42 41 41 40 40 39 39 39 40 40 38 37 36 34 33 31 32 33 32 29 28 26 23 25 26 26 25 26 28 29 27 23 22 25 25 23 21
43 43 43 43 43 43 42 41 40 40 40 39 39 40 39 38 37 36 34 33 32 33 34 32 28 27 24 24 25 26 27 27 27 28 30 28 25 25 27 25 23 22
43 44 44 45 45 44 43 42 40 40 40 39 39 39 40 38 38 37 35 34 33 33 33 31 28 26 25 25 26 27 28 28 27 26 26 26 26 27 28 26 24 22
44 44 45 45 45 44 43 41 40 40 40 39 39 40 40 38 37 37 35 35 34 33 31 30 27 26 26 26 26 28 29 27 26 24 23 25 28 29 28 26 25 23
44 44 43 44 43 43 42 41 41 41 40 40 40 40 39 37 36 36 35 36 36 34 31 29 27 27 26 26 27 28 29 28 28 26 24 27 30 30 29 27 25 23
43 42 41 41 41 41 41 41 41 40 40 40 40 40 38 36 35 33 33 36 37 35 32 30 29 29 27 26 26 27 30 30 29 26 27 30 32 31 29 27 25 23
42 42 40 39 39 39 40 40 40 40 40 39 39 39 37 35 34 31 31 34 36 35 33 31 31 30 27 24 24 26 29 28 25 26 30 32 32 31 29 27 25 24
39 40 39 38 38 39 39 39 39 40 39 38 38 38 36 35 32 30 29 33 36 36 33 31 32 31 28 25 23 25 27 24 23 28 32 33 32 31 29 28 26 24
38 38 37 37 38 38 38 38 38 38 37 37 37 36 35 33 30 28 28 32 36 35 33 31 31 33 32 26 21 23 24 22 23 29 33 32 32 30 29 28 26 25
35 35 35 36 37 38 38 37 36 35 35 36 36 35 34 31 29 27 27 31 35 35 33 30 31 36 34 24 20 23 23 23 24 29 33 32 31 30 29 28 27 25
28 30 33 34 35 35 35 35 34 34 34 34 34 33 32 30 29 27 28 30 32 33 32 29 32 38 34 23 23 25 25 25 26 29 34 32 30 30 29 28 27 25
19 22 25 27 28 29 29 30 30 31 31 32 32 32 31 30 29 28 28 29 29 30 31 30 35 39 33 25 26 26 24 25 27 31 35 34 31 31 29 28 27 25
16 18 19 21 23 25 26 26 27 28 29 30 31 32 32 29 27 27 27 28 30 30 29 31 37 38 32 26 26 25 24 26 29 34 37 34 32 32 30 28 27 26
17 18 19 21 22 24 25 26 25 25 25 26 27 29 29 27 26 26 26 29 32 32 28 28 33 36 32 28 25 24 26 28 31 37 38 36 34 32 31 30 28 26
16 17 19 20 22 23 25 25 25 24 24 25 26 26 26 26 25 25 27 29 31 32 29 27 30 35 34 29 25 24 25 28 33 38 38 36 35 33 32 31 29 27
15 16 17 19 20 21 23 23 24 25 25 26 26 26 26 26 26 27 28 28 28 31 31 28 30 35 35 29 25 23 24 28 35 39 38 37 36 34 33 32 29 28
15 15 16 17 18 19 20 21 22 24 25 26 26 27 27 27 26 27 28 27 28 31 32 29 28 32 33 30 24 22 24 30 36 39 38 37 36 35 33 32 30 28
14 14 14 15 16 16 17 18 19 20 22 24 25 26 27 27 28 27 27 27 29 31 32 31 29 29 31 30 25 22 26 31 36 39 39 37 36 35 33 31 30 29
13 13 13 13 14 14 15 15 15 15 16 18 20 21 23 24 26 27 27 28 29 30 33 34 33 32 31 29 26 24 27 33 37 38 38 37 37 36 34 32 30 29
13 12 11 12 12 13 14 13 13 12 12 12 14 15 16 18 21 23 25 26 27 29 33 36 35 32 29 26 25 26 28 34 37 37 37 37 36 35 34 32 31 29
13 12 11 12 12 12 13 13 12 12 12 12 13 14 16 17 19 21 23 23 23 25 30 34 32 28 24 23 24 27 31 35 36 36 36 36 35 34 33 32 31 29
14 13 13 12 12 12 12 13 13 13 13 13 14 15 17 18 20 20 20 20 20 22 27 31 28 23 22 21 22 27 32 36 37 37 37 36 36 34 33 32 31 30
14 14 13 12 12 12 12 12 13 14 14 15 16 16 17 17 18 18 18 18 18 21 26 28 24 21 21 20 21 26 33 37 38 38 38 38 36 34 33 32 31 31
15 15 14 13 12 12 12 13 13 14 14 15 16 17 17 17 16 17 18 19 19 20 24 25 22 20 20 21 22 27 34 38 39 39 40 39 37 35 34 33 32 32
14 14 14 13 12 12 13 13 14 15 15 16 16 16 17 17 18 18 18 20 21 22 23 24 23 22 21 22 25 31 36 40 41 41 40 39 38 37 35 34 34 33
15 14 14 13 13 12 13 13 14 16 17 18 18 18 17 18 18 18 19 20 22 24 25 26 26 25 24 25 29 34 39 41 41 41 41 40 39 38 37 36 35 34
Wind_Direction
249 248 249 249 250 251 250 249 248 248 248 247 249 251 250 249 249 248 247 245 243 242 246 247 244 242 241 239 238 240 242 241 235 233 237 239 235 222 210 208 209 208
248 248 249 248 248 249 250 249 248 247 248 248 249 250 250 248 247 248 247 245 243 244 246 247 243 241 244 243 240 240 242 243 240 238 238 237 230 216 209 208 208 206
249 248 248 249 249 249 249 248 246 247 247 247 248 249 249 248 248 246 244 243 245 246 247 247 243 241 245 246 241 240 244 244 242 241 239 232 222 211 207 207 206 206
249 249 249 249 249 248 247 246 245 246 246 246 246 248 249 249 248 245 240 239 242 247 248 247 244 241 243 244 242 243 247 248 246 246 237 224 213 208 207 206 205 206
249 249 249 248 247 246 245 244 245 246 246 247 247 248 249 250 249 245 239 235 238 244 247 245 243 242 243 245 246 247 247 247 251 248 231 214 208 206 206 206 205 207
248 247 247 247 246 245 244 244 246 247 247 248 248 249 249 250 250 246 239 234 236 242 244 241 241 242 243 248 251 247 243 246 251 240 218 207 206 206 205 205 206 208
247 246 245 245 244 244 244 244 246 246 247 247 248 249 249 250 250 248 240 234 235 240 241 241 243 241 241 249 254 249 244 245 244 226 210 205 206 206 204 204 207 208
246 244 243 242 242 242 242 244 245 246 246 246 246 247 249 250 251 249 241 235 236 240 242 243 243 241 241 248 255 253 245 242 237 220 208 205 206 206 205 205 207 209
244 243 243 242 242 241 242 243 245 245 245 244 245 247 248 249 250 247 241 238 237 239 241 243 243 241 240 241 253 258 247 243 239 222 209 207 206 206 207 208 209 209
249 247 246 246 245 244 244 244 243 243 243 244 246 248 248 249 249 246 243 240 237 237 239 241 244 241 235 234 252 260 248 242 241 225 212 209 209 207 209 211 211 211
256 252 250 249 248 248 248 247 246 246 247 248 249 249 249 250 249 246 244 239 237 238 238 243 247 239 231 234 252 255 246 240 238 226 214 209 209 210 211 213 213 213
258 253 250 249 249 250 251 251 250 249 248 249 250 250 250 252 252 249 244 239 239 240 239 246 248 236 227 236 248 251 249 241 232 223 215 210 209 210 212 214 214 214
258 255 252 250 250 251 251 251 250 248 247 246 246 247 250 253 253 252 248 241 238 237 241 250 246 232 226 233 241 247 250 241 227 218 214 210 209 210 212 214 214 215
265 263 261 258 257 256 255 254 252 249 248 247 247 249 251 252 251 250 250 247 239 231 237 248 240 230 230 233 237 243 244 236 224 215 212 210 209 210 212 214 214 215
266 264 263 261 261 260 259 257 254 250 247 245 245 246 247 248 248 245 245 249 244 233 231 236 234 232 233 232 234 241 238 229 220 214 212 210 209 211 213 215 216 216
266 262 260 259 260 260 259 258 255 252 248 243 241 239 240 242 242 242 243 245 245 238 231 231 236 235 231 228 234 243 239 227 218 213 212 211 211 213 214 215 216 217
270 266 263 261 261 260 259 257 254 251 248 244 240 235 235 236 237 241 244 242 244 242 232 231 239 236 229 230 237 243 239 228 218 214 213 213 213 215 218 218 218 217
268 267 266 264 262 261 258 254 251 249 246 244 242 237 234 234 234 238 241 241 247 245 233 230 236 231 228 234 240 243 237 226 219 217 216 215 215 216 219 220 220 219
266 265 265 264 263 261 257 251 246 245 243 241 241 238 235 234 234 235 237 240 248 248 239 234 232 227 226 232 239 244 236 223 219 220 219 218 218 217 219 220 220 220
266 263 263 262 259 256 253 247 240 237 238 236 234 233 233 235 235 235 238 243 249 250 244 237 229 226 229 235 242 244 234 221 219 220 221 222 221 221 222 221 221 221
267 264 261 258 253 249 245 241 234 228 226 225 225 229 232 235 236 235 240 246 249 248 242 232 225 226 234 241 244 240 228 219 219 220 221 222 222 223 224 223 222 222
265 262 259 257 252 245 238 234 229 225 224 224 227 232 234 234 236 237 239 242 245 245 236 227 225 231 238 240 239 233 224 219 219 221 222 222 222 223 223 223 223 223
263 260 259 258 256 249 240 232 227 224 225 228 233 238 239 238 237 238 238 239 243 242 231 225 230 242 245 242 238 232 225 222 222 223 224 224 223 223 223 223 223 223
261 260 260 259 260 255 244 235 228 226 226 229 234 237 240 243 242 240 240 239 239 234 227 231 245 253 252 249 243 235 228 225 225 226 226 225 224 223 223 224 223 224
262 260 259 258 258 255 247 237 229 226 227 230 233 233 234 239 242 240 239 237 233 230 233 244 254 256 255 254 246 236 229 227 227 228 228 227 226 225 224 224 224 225
257 254 253 252 252 250 246 239 230 225 225 228 232 231 230 234 239 239 237 235 234 237 245 252 255 254 255 253 245 235 230 228 228 230 230 230 229 228 227 227 227 227
Height
1516 1517 1518 1519 1519 1520 1521 1522 1523 1523 1524 1526 1526 1527 1529 1531 1533 1534 1536 1537 1539 1540 1540 1541 1542 1543 1544 1545 1546 1547 1548 1549 1551 1552 1552 1553 1555 1556 1556 1558 1558 1560
1513 1514 1514 1515 1516 1516 1517 1519 1520 1520 1521 1522 1524 1525 1527 1529 1531 1532 1533 1534 1536 1536 1536 1537 1539 1539 1540 1541 1543 1544 1544 1546 1547 1548 1549 1550 1552 1553 1554 1555 1556 1557
1509 1510 1510 1511 1511 1513 1514 1516 1517 1518 1519 1520 1521 1522 1523 1526 1528 1529 1530 1531 1532 1533 1533 1534 1535 1536 1537 1538 1540 1541 1541 1543 1544 1545 1546 1548 1549 1550 1551 1553 1554 1555
1504 1505 1506 1507 1508 1509 1511 1513 1514 1515 1516 1517 1518 1519 1520 1522 1524 1526 1527 1528 1529 1530 1531 1532 1533 1534 1535 1536 1538 1538 1539 1540 1541 1542 1543 1545 1546 1548 1549 1550 1551 1553
1500 1502 1503 1504 1505 1507 1508 1509 1510 1511 1512 1514 1515 1516 1517 1519 1521 1522 1524 1525 1526 1527 1528 1529 1530 1531 1533 1534 1535 1536 1536 1537 1538 1539 1540 1542 1543 1545 1546 1548 1549 1551
1497 1498 1500 1501 1502 1504 1505 1506 1507 1508 1509 1510 1511 1513 1514 1516 1517 1519 1521 1522 1523 1525 1526 1527 1528 1529 1530 1532 1533 1534 1534 1535 1535 1536 1537 1539 1541 1542 1544 1546 1547 1548
1493 1494 1496 1498 1499 1500 1501 1502 1504 1505 1506 1507 1508 1509 1511 1512 1514 1516 1517 1519 1520 1521 1523 1524 1525 1527 1528 1529 1531 1531 1532 1533 1532 1533 1534 1536 1538 1540 1542 1543 1545 1546
1489 1490 1492 1494 1495 1496 1498 1499 1500 1501 1503 1504 1504 1506 1507 1509 1511 1513 1514 1516 1517 1519 1520 1522 1523 1525 1526 1527 1528 1529 1529 1530 1530 1531 1533 1534 1536 1538 1540 1541 1543 1544
1485 1487 1489 1490 1492 1493 1494 1496 1497 1498 1500 1500 1501 1503 1504 1506 1508 1510 1511 1513 1514 1515 1517 1519 1520 1522 1522 1523 1525 1526 1526 1528 1529 1530 1531 1533 1535 1536 1538 1539 1540 1542
1481 1484 1486 1487 1488 1490 1491 1493 1495 1496 1497 1498 1499 1500 1502 1503 1505 1507 1508 1509 1511 1512 1513 1515 1517 1518 1519 1520 1521 1522 1523 1525 1526 1528 1530 1531 1533 1534 1536 1537 1538 1539
1478 1480 1482 1483 1485 1487 1489 1491 1492 1493 1494 1495 1496 1497 1499 1500 1502 1503 1505 1506 1507 1508 1510 1512 1513 1513 1514 1516 1517 1519 1520 1522 1523 1525 1527 1529 1531 1532 1534 1535 1536 1537
1475 1476 1478 1480 1482 1484 1486 1487 1489 1490 1491 1492 1494 1495 1497 1498 1499 1500 1501 1503 1504 1506 1507 1508 1508 1509 1510 1512 1514 1515 1516 1518 1520 1522 1525 1526 1528 1530 1531 1533 1534 1534
1473 1474 1475 1477 1478 1480 1482 1483 1484 1486 1488 1490 1492 1493 1494 1496 1497 1498 1499 1500 1501 1503 1504 1505 1505 1506 1508 1508 1510 1511 1513 1514 1516 1518 1521 1523 1525 1527 1528 1530 1531 1532
1472 1472 1473 1474 1475 1476 1478 1479 1480 1482 1484 1487 1489 1490 1492 1493 1495 1496 1496 1497 1498 1498 1500 1500 1501 1503 1505 1505 1507 1508 1509 1510 1512 1514 1517 1520 1522 1524 1525 1527 1528 1529
1469 1470 1470 1471 1472 1473 1474 1475 1477 1479 1481 1483 1485 1487 1489 1490 1492 1493 1493 1494 1494 1495 1496 1497 1498 1500 1501 1502 1504 1505 1506 1507 1509 1511 1514 1516 1518 1520 1522 1524 1525 1526
1467 1467 1468 1468 1469 1470 1471 1472 1473 1475 1476 1479 1480 1483 1485 1487 1488 1489 1490 1491 1491 1492 1494 1494 1495 1497 1498 1500 1502 1502 1503 1504 1506 1509 1511 1513 1515 1517 1519 1521 1522 1524
1464 1465 1466 1466 1467 1468 1468 1469 1470 1471 1473 1474 1476 1478 1481 1483 1484 1486 1487 1488 1489 1490 1491 1492 1493 1495 1497 1498 1499 1500 1501 1502 1504 1506 1508 1510 1512 1514 1516 1518 1519 1521
1462 1463 1463 1464 1465 1465 1466 1467 1468 1469 1470 1471 1472 1475 1477 1479 1481 1483 1484 1486 1487 1488 1489 1490 1492 1493 1495 1496 1497 1498 1499 1500 1502 1504 1506 1507 1509 1511 1513 1515 1516 1518
1461 1461 1461 1462 1462 1463 1464 1464 1465 1466 1467 1468 1470 1472 1474 1475 1478 1480 1482 1484 1485 1486 1487 1488 1489 1491 1492 1494 1495 1496 1497 1498 1500 1502 1503 1505 1507 1509 1510 1512 1514 1515
1459 1459 1460 1460 1460 1460 1461 1461 1462 1463 1464 1466 1467 1469 1471 1473 1475 1477 1479 1480 1482 1483 1484 1485 1487 1490 1491 1492 1492 1493 1495 1496 1498 1500 1502 1503 1505 1506 1508 1509 1511 1512
1457 1457 1458 1458 1458 1458 1459 1459 1460 1461 1463 1464 1465 1467 1469 1470 1472 1474 1476 1477 1478 1480 1481 1483 1486 1488 1489 1490 1490 1491 1492 1494 1496 1498 1499 1501 1502 1504 1506 1507 1509 1510
1455 1455 1456 1456 1457 1457 1458 1459 1460 1461 1462 1463 1464 1466 1467 1468 1470 1472 1474 1475 1476 1477 1479 1482 1484 1486 1487 1487 1488 1489 1491 1493 1494 1496 1497 1498 1499 1501 1503 1504 1506 1507
1453 1454 1454 1455 1456 1456 1457 1458 1459 1460 1462 1463 1464 1465 1466 1467 1469 1470 1472 1474 1475 1476 1478 1481 1483 1484 1485 1485 1486 1487 1489 1490 1492 1493 1494 1495 1496 1498 1500 1501 1503 1504
1451 1452 1452 1453 1454 1455 1455 1457 1458 1459 1460 1461 1462 1463 1465 1466 1467 1469 1470 1472 1473 1475 1477 1479 1481 1482 1483 1483 1484 1485 1486 1488 1489 1490 1491 1492 1493 1495 1497 1498 1500 1501
1449 1450 1451 1451 1452 1453 1453 1454 1455 1457 1458 1459 1460 1461 1462 1464 1465 1467 1468 1470 1472 1473 1475 1477 1478 1479 1480 1481 1482 1482 1483 1484 1485 1486 1487 1489 1490 1492 1493 1495 1496 1498
1447 1448 1449 1450 1451 1451 1452 1452 1453 1454 1455 1456 1457 1459 1460 1462 1463 1465 1466 1468 1470 1471 1472 1473 1474 1476 1477 1478 1478 1479 1479 1481 1482 1483 1484 1486 1487 1489 1490 1491 1493 1495